Regional Weather Roundup
Issued by NWS

Home | Current Version | Previous Version | Graphics & Text | Print | Product List | Glossary On
Versions: 1 2 3 4 5 6 7 8 9 10 11 12 13 14 15 16 17 18 19 20 21 22 23 24 25 26 27 28 29 30 31 32 33 34 35 36 37 38 39 40 41 42 43 44 45 46 47 48 49 50
000
ASUS43 KTOP 272208
RWRKS

WEATHER ROUNDUP FOR KANSAS
NATIONAL WEATHER SERVICE GOODLAND KS
500 PM CDT FRI MAY 27 2016

NOTE:  "FAIR" INDICATES FEW OR NO CLOUDS BELOW 12,000 FEET WITH NO
SIGNIFICANT WEATHER AND/OR OBSTRUCTIONS TO VISIBILITY.

KSZ001>006-013>018-027>032-041>047-272300-
NORTHWEST KANSAS

CITY           SKY/WX    TMP DP  RH WIND       PRES   REMARKS
GOODLAND       MOSUNNY   61  54  77 NE14G24   29.73F
HAYS           MOSUNNY   48 N/A N/A NE10      29.64F
HILL CITY      CLOUDY    63  59  87 NE8       29.71F
RUSSELL        MOSUNNY   73  64  73 N10       29.62F
$$

KSZ061>065-074>080-084>089-272300-
SOUTHWEST KANSAS

CITY           SKY/WX    TMP DP  RH WIND       PRES   REMARKS
DODGE CITY     MOSUNNY   72  45  37 SW10      29.65F
ELKHART          N/A     67  45  45 W21         N/A
GARDEN CITY    PTSUNNY   73  41  31 S17G24    29.63F
GREAT BEND     SUNNY     75  57  53 SW8       29.62F
LIBERAL        CLOUDY    70  43  37 W20       29.68F
PRATT          MOSUNNY   74  53  48 S6        29.64F
$$

KSZ066>073-081>083-090>101-272300-
SOUTHEAST KANSAS

CITY           SKY/WX    TMP DP  RH WIND       PRES   REMARKS
CHANUTE        PTSUNNY   76  64  66 SE16      29.68F
COFFEYVILLE    CLOUDY    76  67  73 SE12      29.69F
HUTCHINSON     CLOUDY    74  62  66 S12       29.64F
MEDICINE LODGE   N/A     79  50  36 SW10      29.63F
NEWTON         CLOUDY    61  55  82 S10       29.76  THUNDER
PARSONS        MOSUNNY   76  67  73 SE8       29.69F
WICHITA INTL   TSTM      69  65  86 E14       29.67R
WICHITA JABRA  TSTM      60  58  92 NW9       29.68R FOG
WICHITA MCCONL LGT RAIN  63  61  94 NE9       29.69R
WINFIELD       CLOUDY    64  58  80 NW14G32   29.69R THUNDER
$$

KSZ007>012-019>026-033>040-048>060-102>105-272300-
NORTHEAST KANSAS

CITY           SKY/WX    TMP DP  RH WIND       PRES   REMARKS
CONCORDIA      MOSUNNY   74  64  71 S9        29.65F
EMPORIA        CLOUDY    73  66  78 SE13      29.66F
LAWRENCE       CLOUDY    74  68  81 SE8       29.69F
MANHATTAN      CLOUDY    75  65  70 SE7       29.65F
MARYSVILLE     CLOUDY    73  64  73 SE12      29.68F THUNDER
OLATHE IND     PTSUNNY   74  66  76 S13       29.71F
OLATHE EXE     CLOUDY    75  65  70 S12       29.71F
SALINA         PTSUNNY   74  66  76 SE10      29.65S
TOPEKA BILLARD CLOUDY    73  67  81 E10       29.69F
TOPEKA FORBES  MOSUNNY   75  66  73 S9        29.68F
$$




USA.gov is the U.S. government's official web portal to all federal, state and local government web resources and services.